period_start,C,m1,H,J0,J1,J2,J3,J4,J5,JA,JB,JC,JD,JJ,JK,JN,#
2014-07-13 00:04:13,0.00,0.48,0.00,26.29,31.15,33.27,9.41,37.17,1014.66,2022.04,3325.95,3140.94,3404.02,499.52,489.84,31.68,0000 0000 0000 0000 000000
2014-07-13 00:09:14,0.00,0.48,0.00,26.26,31.15,33.28,9.43,37.10,1014.66,2022.01,3325.74,3140.91,3404.00,499.81,490.39,31.73,0000 0000 0000 0000 000000
2014-07-13 00:14:16,0.01,0.48,0.00,26.27,31.15,33.33,9.42,37.14,1014.66,2022.01,3325.25,3140.79,3404.00,499.59,490.03,31.77,0000 0000 0000 0000 000000
2014-07-13 00:19:16,-0.00,0.48,0.00,26.23,31.15,33.28,9.52,37.08,1014.66,2022.01,3325.16,3140.81,3404.00,500.63,491.16,31.81,0000 0000 0000 0000 000000
2014-07-13 00:24:17,0.00,0.48,0.00,26.20,31.14,33.26,9.44,37.08,1014.66,2022.04,3325.08,3140.80,3404.00,500.43,490.72,31.85,0000 0000 0000 0000 000000
2014-07-13 00:29:18,-0.00,0.48,0.00,26.21,31.12,33.23,9.46,36.94,1014.66,2022.06,3325.16,3140.91,3404.01,500.29,490.81,31.89,0000 0000 0000 0000 000000
2014-07-13 00:34:19,0.01,0.48,0.00,26.20,31.11,33.22,9.37,38.09,1014.66,2022.11,3325.05,3140.94,3404.03,499.87,490.22,31.94,0000 0000 0000 0000 000000
2014-07-13 00:39:20,0.05,0.48,0.00,26.23,31.10,33.32,9.45,38.16,1014.64,2022.37,3325.10,3140.97,3404.09,499.76,490.20,31.98,0000 0000 0000 0000 000000
2014-07-13 00:44:21,0.02,0.49,0.00,26.25,31.07,33.29,9.50,38.25,1014.65,2022.73,3325.23,3140.99,3404.24,500.33,490.73,32.02,0000 0000 0000 0000 000000
2014-07-13 00:49:22,-0.00,0.49,0.00,26.27,31.06,33.31,9.37,38.13,1014.65,2022.91,3325.46,3140.99,3404.52,499.70,490.17,32.06,0000 0000 0000 0000 000000
2014-07-13 00:54:23,0.01,0.49,0.00,26.31,31.05,33.35,9.46,38.12,1014.54,2022.89,3325.43,3140.99,3404.49,500.00,490.16,32.10,0000 0000 0000 0000 000000
2014-07-13 00:59:25,-0.01,0.49,0.00,26.33,31.02,33.37,9.38,37.94,1014.45,2022.98,3325.84,3141.00,3404.91,499.67,490.06,32.14,0000 0000 0000 0000 000000
2014-07-13 01:04:26,0.00,0.49,0.00,26.36,31.01,33.40,9.47,38.08,1014.21,2022.97,3325.93,3141.00,3404.94,500.01,489.96,32.19,0000 0000 0000 0000 000000
2014-07-13 01:09:27,0.00,0.49,0.00,26.40,31.00,33.44,9.47,38.27,1014.19,2022.97,3325.92,3141.01,3404.96,500.11,489.99,32.23,0000 0000 0000 0000 000000
2014-07-13 01:14:28,0.00,0.49,0.00,26.40,30.98,33.43,9.44,38.22,1014.18,2022.99,3325.94,3141.01,3404.98,500.09,489.97,32.27,0000 0000 0000 0000 000000
2014-07-13 01:19:29,0.00,0.49,0.00,26.44,30.97,33.43,9.45,38.14,1014.24,2022.99,3325.98,3141.06,3404.99,499.99,489.94,32.31,0000 0000 0000 0000 000000
2014-07-13 01:24:30,-0.00,0.49,0.00,26.45,30.95,33.40,9.33,38.06,1014.36,2022.99,3325.99,3141.25,3404.99,500.03,489.88,32.35,0000 0000 0000 0000 000000
2014-07-13 01:29:31,-0.01,0.49,0.00,26.44,30.95,33.43,9.46,38.26,1014.24,2022.99,3325.99,3141.54,3405.00,500.12,489.78,32.39,0000 0000 0000 0000 000000
2014-07-13 01:34:32,-0.00,0.49,0.00,26.42,30.94,33.43,9.39,38.05,1014.19,2022.99,3325.99,3141.71,3405.01,499.85,489.75,32.43,0000 0000 0000 0000 000000
2014-07-13 01:39:33,-0.00,0.49,0.00,26.46,30.92,33.48,9.45,37.95,1014.20,2023.01,3325.99,3141.90,3405.04,500.23,489.95,32.48,0000 0000 0000 0000 000000
2014-07-13 01:44:34,-0.00,0.49,0.00,26.50,30.92,33.48,9.42,37.96,1014.18,2023.01,3326.00,3141.87,3405.05,500.23,489.95,32.52,0000 0000 0000 0000 000000
2014-07-13 01:49:35,-0.00,0.49,0.00,26.54,30.92,33.50,9.42,37.93,1014.18,2023.01,3326.00,3141.90,3405.04,500.26,489.90,32.56,0000 0000 0000 0000 000000
2014-07-13 01:54:36,-0.00,0.49,0.00,26.58,30.92,33.56,9.43,37.87,1014.17,2023.00,3326.00,3141.88,3405.02,500.05,489.50,32.60,0000 0000 0000 0000 000000
2014-07-13 01:59:37,0.00,0.49,0.00,26.62,30.92,33.59,9.41,37.85,1014.17,2023.01,3326.00,3141.87,3405.02,499.81,489.35,32.64,0000 0000 0000 0000 000000
2014-07-13 02:04:38,0.01,0.49,0.00,26.66,30.92,33.63,9.41,37.71,1014.17,2023.00,3326.00,3141.57,3405.00,500.24,489.66,32.68,0000 0000 0000 0000 000000
2014-07-13 02:09:39,0.00,0.49,0.00,26.70,30.92,33.67,9.42,37.94,1013.80,2023.00,3326.00,3141.33,3405.00,499.91,489.26,32.73,0000 0000 0000 0000 000000
2014-07-13 02:14:40,0.01,0.49,0.00,26.74,30.92,33.70,9.35,37.50,1013.69,2023.00,3325.90,3141.04,3404.97,499.84,488.86,32.77,0000 0000 0000 0000 000000
2014-07-13 02:19:41,0.01,0.49,0.00,26.76,30.92,33.71,9.46,38.09,1013.69,2023.00,3325.77,3141.01,3404.96,500.02,488.95,32.81,0000 0000 0000 0000 000000
2014-07-13 02:24:43,0.02,0.49,0.00,26.80,30.94,33.73,9.41,37.98,1013.38,2023.00,3325.24,3141.01,3404.78,499.82,488.59,32.85,0000 0000 0000 0000 000000
2014-07-13 02:29:44,0.01,0.49,0.00,26.82,30.95,33.77,9.42,37.86,1013.24,2023.00,3325.00,3141.00,3404.27,499.67,488.48,32.89,0000 0000 0000 0000 000000
2014-07-13 02:34:45,0.00,0.49,0.00,26.85,30.96,33.81,9.39,38.04,1013.21,2023.00,3325.00,3140.98,3404.04,500.00,488.45,32.93,0000 0000 0000 0000 000000
2014-07-13 02:39:46,0.00,0.49,0.00,26.88,30.97,33.81,9.40,37.72,1013.24,2023.00,3324.98,3140.95,3404.01,499.91,488.66,32.98,0000 0000 0000 0000 000000
2014-07-13 02:44:47,0.00,0.49,0.00,26.93,30.99,33.90,9.36,37.48,1013.22,2023.00,3324.98,3140.89,3404.00,500.06,488.57,33.02,0000 0000 0000 0000 000000
2014-07-13 02:49:49,0.01,0.49,0.00,26.90,31.00,33.87,9.44,37.87,1013.20,2022.99,3324.97,3140.61,3404.00,500.11,488.82,33.06,0000 0000 0000 0000 000000
2014-07-13 02:54:50,0.01,0.49,0.00,26.87,31.01,33.91,9.37,37.84,1012.91,2022.99,3324.60,3140.25,3403.99,500.11,488.61,33.10,0000 0000 0000 0000 000000
2014-07-13 02:59:51,-0.00,0.49,0.00,26.90,31.02,33.93,9.42,37.93,1012.87,2022.98,3324.53,3140.12,3403.97,500.01,488.39,33.14,0000 0000 0000 0000 000000
2014-07-13 03:04:52,0.00,0.49,0.00,26.90,31.04,33.89,9.35,37.77,1013.15,2022.95,3324.14,3140.03,3403.94,500.10,488.64,33.18,0000 0000 0000 0000 000000
2014-07-13 03:09:54,-0.00,0.49,0.00,26.92,31.05,33.93,9.38,37.58,1013.15,2022.95,3324.04,3140.00,3403.92,499.58,488.09,33.23,0000 0000 0000 0000 000000
2014-07-13 03:14:55,-0.00,0.49,0.00,26.94,31.06,33.96,9.26,37.75,1012.98,2022.91,3324.02,3140.01,3403.71,499.32,487.70,33.27,0000 0000 0000 0000 000000
2014-07-13 03:19:56,-0.00,0.49,0.00,26.95,31.07,33.97,9.42,37.59,1012.72,2022.81,3324.00,3140.00,3403.19,500.02,488.02,33.31,0000 0000 0000 0000 000000
2014-07-13 03:24:57,-0.00,0.49,0.00,26.95,31.08,34.00,9.44,38.02,1012.71,2022.72,3324.00,3140.00,3403.05,499.80,488.18,33.35,0000 0000 0000 0000 000000
2014-07-13 03:29:59,-0.01,0.49,0.00,26.96,31.10,34.01,9.44,37.83,1012.71,2022.67,3323.97,3139.97,3403.01,500.10,488.36,33.39,0000 0000 0000 0000 000000
2014-07-13 03:35:00,-0.03,0.49,0.00,26.93,31.11,34.01,9.43,37.68,1012.71,2022.47,3323.96,3139.95,3403.01,500.35,488.76,33.43,0000 0000 0000 0000 000000
2014-07-13 03:40:01,-0.01,0.49,0.00,26.90,31.12,33.94,9.50,37.75,1012.71,2022.16,3323.81,3139.81,3403.00,500.24,488.62,33.48,0000 0000 0000 0000 000000
2014-07-13 03:45:02,0.02,0.49,0.00,26.98,31.13,34.02,9.44,37.69,1012.60,2022.24,3323.45,3139.68,3403.00,500.28,488.25,33.52,0000 0000 0000 0000 000000
2014-07-13 03:50:04,-0.00,0.49,0.00,27.02,31.15,34.11,9.40,37.59,1012.25,2022.13,3323.20,3139.33,3402.97,499.99,487.98,33.56,0000 0000 0000 0000 000000
2014-07-13 03:55:05,0.01,0.49,0.00,27.04,31.15,34.13,9.42,37.92,1012.22,2022.14,3323.09,3139.25,3402.97,500.14,488.03,33.60,0000 0000 0000 0000 000000
2014-07-13 04:00:06,0.00,0.49,0.00,27.02,31.16,34.12,9.41,37.80,1012.22,2022.10,3323.01,3139.10,3402.94,500.00,488.00,33.64,0000 0000 0000 0000 000000
2014-07-13 04:05:07,0.00,0.49,0.00,27.05,31.17,34.13,9.35,37.77,1012.16,2022.04,3323.00,3139.02,3402.64,499.74,487.83,33.68,0000 0000 0000 0000 000000
2014-07-13 04:10:08,0.00,0.49,0.00,27.10,31.19,34.14,9.38,37.80,1012.00,2022.02,3323.00,3139.00,3402.44,500.08,487.76,33.73,0000 0000 0000 0000 000000
2014-07-13 04:15:10,0.00,0.49,0.00,27.14,31.20,34.20,9.42,37.81,1012.04,2022.01,3322.99,3139.00,3402.05,500.16,487.74,33.77,0000 0000 0000 0000 000000
2014-07-13 04:20:11,0.00,0.49,0.00,27.20,31.21,34.23,9.38,37.77,1011.80,2022.00,3322.96,3139.00,3402.00,500.02,487.54,33.81,0000 0000 0000 0000 000000
2014-07-13 04:25:12,0.00,0.49,0.00,27.21,31.22,34.25,9.39,37.85,1011.94,2022.00,3322.79,3138.97,3402.00,499.93,487.44,33.85,0000 0000 0000 0000 000000
2014-07-13 04:30:13,0.00,0.49,0.00,27.19,31.22,34.25,9.38,37.67,1011.84,2022.00,3322.54,3138.97,3402.00,499.36,486.79,33.89,0000 0000 0000 0000 000000
2014-07-13 04:35:14,0.01,0.49,0.00,27.12,31.24,34.26,9.43,37.64,1011.74,2022.00,3322.16,3138.89,3402.00,500.16,487.62,33.93,0000 0000 0000 0000 000000
2014-07-13 04:40:16,-0.00,0.49,0.00,27.09,31.25,34.26,9.32,37.68,1011.73,2022.00,3322.10,3138.89,3401.99,499.68,487.18,33.97,0000 0000 0000 0000 000000
2014-07-13 04:45:17,-0.00,0.49,0.00,27.07,31.25,34.26,9.34,37.60,1011.73,2022.00,3322.07,3138.87,3401.98,500.04,487.82,34.02,0000 0000 0000 0000 000000
2014-07-13 04:50:18,0.01,0.49,0.00,27.07,31.25,34.22,9.38,37.73,1011.64,2022.00,3322.05,3138.79,3401.98,499.98,487.63,34.06,0000 0000 0000 0000 000000
2014-07-13 04:55:19,0.00,0.49,0.00,27.08,31.25,34.22,9.38,37.76,1011.65,2022.00,3322.01,3138.60,3401.94,499.82,487.55,34.10,0000 0000 0000 0000 000000
2014-07-13 05:00:20,0.00,0.49,0.00,27.10,31.25,34.20,9.31,37.37,1011.66,2022.00,3322.00,3138.26,3401.86,499.78,487.35,34.14,0000 0000 0000 0000 000000
2014-07-13 05:05:21,-0.01,0.49,0.00,27.10,31.25,34.18,9.47,38.04,1011.55,2022.00,3321.99,3138.26,3401.83,500.02,487.66,34.18,0000 0000 0000 0000 000000
2014-07-13 05:10:23,0.01,0.49,0.00,27.10,31.24,34.15,9.44,37.81,1011.37,2022.00,3321.99,3138.30,3401.87,500.13,487.51,34.22,0000 0000 0000 0000 000000
2014-07-13 05:15:24,0.01,0.49,0.00,27.10,31.23,34.15,9.40,37.55,1011.25,2022.00,3321.97,3138.16,3401.78,500.48,487.77,34.27,0000 0000 0000 0000 000000
2014-07-13 05:20:25,-0.00,0.49,0.00,27.10,31.22,34.13,9.31,37.50,1011.24,2022.00,3321.95,3138.14,3401.62,499.50,486.97,34.31,0000 0000 0000 0000 000000
2014-07-13 05:25:26,-0.00,0.49,0.00,27.10,31.22,34.13,9.30,37.33,1011.21,2022.00,3321.90,3138.13,3401.68,499.75,487.10,34.35,0000 0000 0000 0000 000000
2014-07-13 05:30:27,0.00,0.49,0.00,27.11,31.22,34.13,9.36,37.34,1011.16,2022.00,3321.78,3138.09,3401.62,499.79,487.22,34.39,0000 0000 0000 0000 000000
2014-07-13 05:35:28,-0.00,0.49,0.00,27.14,31.22,34.14,9.39,37.24,1010.80,2022.00,3321.84,3138.17,3401.73,499.99,487.04,34.43,0000 0000 0000 0000 000000
2014-07-13 05:40:29,-0.00,0.49,0.00,27.18,31.22,34.15,9.41,37.42,1010.77,2022.01,3321.85,3138.27,3401.75,499.66,486.40,34.47,0000 0000 0000 0000 000000
2014-07-13 05:45:30,0.01,0.49,0.00,27.19,31.22,34.14,9.35,37.11,1010.71,2022.02,3321.81,3138.22,3401.71,499.58,486.60,34.52,0000 0000 0000 0000 000000
2014-07-13 05:50:31,0.00,0.49,0.00,27.18,31.21,34.15,9.44,37.62,1010.42,2022.00,3321.66,3138.15,3401.63,500.26,487.07,34.56,0000 0000 0000 0000 000000
2014-07-13 05:55:32,0.01,0.49,0.00,27.20,31.20,34.15,9.32,36.71,1010.32,2022.02,3321.53,3138.20,3401.63,499.63,486.47,34.60,0000 0000 0000 0000 000000
2014-07-13 06:00:34,0.00,0.49,0.00,27.19,31.20,34.13,9.40,37.42,1010.35,2022.02,3321.41,3138.21,3401.52,500.07,486.77,34.64,0000 0000 0000 0000 000000
2014-07-13 06:05:35,0.00,0.49,0.00,27.21,31.20,34.17,9.26,36.54,1010.27,2022.02,3321.21,3138.10,3401.31,500.17,486.74,34.68,0000 0000 0000 0000 000000
2014-07-13 06:10:36,0.00,0.49,0.00,27.21,31.20,34.17,9.36,37.80,1010.26,2022.02,3321.08,3138.07,3401.16,500.55,487.07,34.72,0000 0000 0000 0000 000000
2014-07-13 06:15:37,0.00,0.49,0.00,27.20,31.20,34.14,9.49,37.47,1010.26,2022.03,3321.05,3138.04,3401.09,500.63,487.54,34.77,0000 0000 0000 0000 000000
2014-07-13 06:20:38,-0.00,0.49,0.00,27.19,31.20,34.16,9.33,36.53,1010.27,2022.03,3321.05,3138.06,3401.07,499.60,486.33,34.81,0000 0000 0000 0000 000000
2014-07-13 06:25:39,-0.00,0.49,0.00,27.20,31.20,34.16,9.33,36.50,1010.29,2022.06,3321.11,3138.07,3401.10,499.84,486.62,34.85,0000 0000 0000 0000 000000
2014-07-13 06:30:40,0.00,0.49,0.00,27.20,31.20,34.15,9.36,36.34,1010.26,2022.03,3321.05,3138.08,3401.10,500.23,487.00,34.89,0000 0000 0000 0000 000000
2014-07-13 06:35:42,0.00,0.49,0.00,27.23,31.20,34.16,9.44,37.05,1010.14,2022.03,3321.02,3138.04,3401.06,499.93,486.49,34.93,0000 0000 0000 0000 000000
2014-07-13 06:40:43,-0.00,0.49,0.00,27.25,31.20,34.15,9.42,36.90,1009.79,2022.02,3321.01,3138.03,3401.01,500.57,487.05,34.97,0000 0000 0000 0000 000000
2014-07-13 06:45:44,0.00,0.49,0.00,27.27,31.20,34.17,9.41,36.65,1009.78,2022.01,3321.00,3138.01,3401.00,499.80,486.17,35.02,0000 0000 0000 0000 000000
2014-07-13 06:50:45,0.00,0.49,0.00,27.23,31.19,34.17,9.45,37.03,1009.78,2022.01,3321.00,3138.00,3401.00,500.83,487.20,35.06,0000 0000 0000 0000 000000
2014-07-13 06:55:46,0.00,0.49,0.00,27.19,31.19,34.15,9.27,36.45,1009.71,2022.03,3321.00,3138.01,3401.01,499.56,485.97,35.10,0000 0000 0000 0000 000000
2014-07-13 07:00:47,0.00,0.49,0.00,27.17,31.18,34.15,9.35,36.14,1009.78,2022.03,3321.00,3138.02,3401.01,499.75,486.25,35.14,0000 0000 0000 0000 000000
2014-07-13 07:05:48,0.01,0.49,0.00,27.17,31.18,34.13,9.32,36.41,1009.74,2022.08,3321.00,3138.02,3401.01,499.91,486.40,35.18,0000 0000 0000 0000 000000
2014-07-13 07:10:49,-0.01,0.49,0.00,27.18,31.17,34.13,9.36,36.45,1009.39,2022.05,3320.97,3138.00,3401.00,500.20,486.49,35.22,0000 0000 0000 0000 000000
2014-07-13 07:15:50,0.01,0.49,0.00,27.19,31.17,34.14,9.43,36.66,1009.41,2022.08,3320.93,3138.00,3401.00,500.57,486.76,35.27,0000 0000 0000 0000 000000
2014-07-13 07:20:52,-0.00,0.49,0.00,27.19,31.17,34.13,9.30,36.59,1009.30,2022.06,3320.79,3138.00,3400.98,499.69,485.85,35.31,0000 0000 0000 0000 000000
2014-07-13 07:25:53,0.00,0.49,0.00,27.20,31.17,34.11,9.37,36.58,1009.29,2022.09,3320.83,3138.00,3400.99,499.77,486.10,35.35,0000 0000 0000 0000 000000
2014-07-13 07:30:54,0.00,0.49,0.00,27.19,31.17,34.10,9.39,36.42,1009.29,2022.08,3320.76,3138.00,3400.99,500.26,486.57,35.39,0000 0000 0000 0000 000000
2014-07-13 07:35:55,0.00,0.49,0.00,27.18,31.17,34.10,9.36,36.42,1009.29,2022.07,3320.46,3138.00,3400.99,500.00,486.37,35.43,0000 0000 0000 0000 000000
2014-07-13 07:40:56,-0.00,0.49,0.00,27.17,31.17,34.11,9.50,36.48,1009.27,2022.05,3320.45,3138.00,3400.97,500.42,486.54,35.47,0000 0000 0000 0000 000000
2014-07-13 07:45:57,0.01,0.49,0.00,27.17,31.17,34.10,9.36,36.12,1009.09,2022.05,3320.11,3138.00,3400.95,499.98,486.15,35.51,0000 0000 0000 0000 000000
2014-07-13 07:50:58,0.00,0.49,0.00,27.17,31.17,34.11,9.32,36.32,1008.82,2022.06,3320.04,3138.00,3400.92,500.40,486.44,35.56,0000 0000 0000 0000 000000
2014-07-13 07:56:00,0.24,0.49,0.00,27.12,31.17,34.07,9.40,36.62,1008.83,2022.07,3317.99,3136.32,3398.86,500.14,486.26,35.60,0000 0000 0000 0000 000000
2014-07-13 08:01:01,0.18,0.51,0.00,27.09,31.17,34.08,9.33,36.52,1008.80,2022.07,3314.38,3132.96,3394.98,499.77,485.94,35.64,0000 0000 0000 0000 000000
2014-07-13 08:06:02,0.02,0.51,0.00,27.07,31.17,34.05,9.39,36.87,1009.17,2022.16,3313.61,3132.16,3394.14,499.92,486.24,35.68,0000 0000 0000 0000 000000
2014-07-13 08:11:03,0.02,0.51,0.00,27.07,31.17,34.09,9.33,36.38,1009.05,2022.22,3313.36,3132.10,3394.07,499.64,485.97,35.72,0000 0000 0000 0000 000000
2014-07-13 08:16:04,0.02,0.51,0.00,27.05,31.15,34.09,9.26,36.16,1008.54,2022.48,3313.35,3132.18,3394.07,499.57,485.76,35.76,0000 0000 0000 0000 000000
2014-07-13 08:21:06,0.00,0.51,0.00,27.02,31.15,34.09,9.25,36.24,1008.17,2022.53,3313.25,3132.15,3394.10,499.36,485.65,35.81,0000 0000 0000 0000 000000
2014-07-13 08:26:07,0.09,0.52,0.00,27.01,31.15,34.07,9.43,36.40,1008.12,2022.72,3312.57,3131.58,3393.51,500.35,486.14,35.85,0000 0000 0000 0000 000000
2014-07-13 08:31:08,-0.01,0.52,0.00,26.97,31.15,34.07,9.31,36.68,1008.31,2022.63,3312.03,3131.03,3393.01,499.30,485.37,35.89,0000 0000 0000 0000 000000
2014-07-13 08:36:09,0.02,0.52,0.00,26.96,31.14,34.07,9.32,36.42,1008.31,2022.64,3312.01,3131.02,3393.00,499.62,485.83,35.93,0000 0000 0000 0000 000000
2014-07-13 08:41:10,-0.01,0.52,0.00,26.95,31.12,34.04,9.38,36.15,1008.30,2022.66,3312.00,3131.00,3392.98,500.27,486.29,35.97,0000 0000 0000 0000 000000
2014-07-13 08:46:11,0.03,0.52,0.00,26.98,31.12,34.01,9.29,36.17,1008.01,2022.92,3312.00,3131.01,3392.99,499.63,485.75,36.01,0000 0000 0000 0000 000000
2014-07-13 08:51:12,0.00,0.52,0.00,27.05,31.13,33.80,9.36,36.30,1007.95,2022.92,3312.00,3131.01,3392.98,500.25,486.00,36.06,0000 0000 0000 0000 000000
2014-07-13 08:56:14,-0.01,0.52,0.00,27.12,31.15,33.58,9.36,36.27,1007.88,2022.85,3312.00,3131.00,3392.84,499.85,485.64,36.10,0000 0000 0000 0000 000000
2014-07-13 09:01:15,0.09,0.52,0.00,27.19,31.16,33.53,9.27,36.05,1007.82,2022.66,3310.83,3130.31,3391.72,499.44,485.08,36.14,0000 0000 0000 0000 000000
2014-07-13 09:06:16,0.09,0.53,0.00,27.24,31.18,33.53,9.34,36.08,1007.57,2022.35,3308.12,3128.09,3390.05,500.29,485.58,36.18,0000 0000 0000 0000 000000
2014-07-13 09:11:17,-0.02,0.53,0.00,27.28,31.20,33.54,9.34,36.82,1007.39,2022.18,3308.00,3128.00,3389.90,500.60,485.70,36.22,0000 0000 0000 0000 000000
2014-07-13 09:16:18,0.03,0.53,0.00,27.34,31.22,33.56,9.34,37.77,1007.66,2022.07,3307.39,3127.83,3389.15,499.82,485.13,36.26,0000 0000 0000 0000 000000
2014-07-13 09:21:19,0.01,0.53,0.00,27.38,31.26,33.59,9.27,36.67,1007.83,2022.01,3307.00,3127.16,3388.99,499.68,484.91,36.31,0000 0000 0000 0000 000000
2014-07-13 09:26:20,0.02,0.53,0.00,27.40,31.28,33.61,9.20,36.17,1007.61,2022.00,3306.66,3127.01,3388.56,499.54,484.64,36.35,0000 0000 0000 0000 000000
2014-07-13 09:31:21,0.01,0.53,0.00,27.40,31.32,33.64,9.27,36.40,1007.35,2021.99,3306.07,3126.95,3388.06,499.48,484.50,36.39,0000 0000 0000 0000 000000
2014-07-13 09:36:23,0.11,0.53,0.00,27.40,31.35,33.67,9.33,36.08,1007.34,2021.98,3304.54,3125.92,3387.26,500.18,485.13,36.43,0000 0000 0000 0000 000000
2014-07-13 09:41:24,0.05,0.54,0.00,27.41,31.37,33.71,9.30,36.56,1007.34,2021.95,3302.47,3125.02,3386.09,500.05,484.92,36.47,0000 0000 0000 0000 000000
2014-07-13 09:46:26,0.03,0.54,0.00,27.41,31.40,33.74,9.29,37.70,1007.34,2021.78,3301.46,3124.48,3385.67,500.36,485.26,36.51,0000 0000 0000 0000 000000
2014-07-13 09:51:27,-0.02,0.54,0.00,27.42,31.43,33.77,9.30,37.28,1007.27,2021.24,3300.16,3123.94,3384.98,499.77,484.82,36.55,0000 0000 0000 0000 000000
2014-07-13 09:56:28,0.04,0.54,0.00,27.42,31.46,33.79,9.29,36.46,1007.24,2021.05,3299.08,3123.17,3384.20,499.28,484.27,36.60,0000 0000 0000 0000 000000
2014-07-13 10:01:29,0.08,0.54,0.00,27.41,31.49,33.82,9.28,36.22,1007.34,2021.02,3297.55,3122.41,3383.32,499.73,484.77,36.64,0000 0000 0000 0000 000000
2014-07-13 10:06:30,0.03,0.54,0.00,27.40,31.51,33.86,9.43,36.50,1007.56,2021.00,3296.25,3121.97,3382.58,500.31,485.25,36.68,0000 0000 0000 0000 000000
2014-07-13 10:11:32,0.02,0.54,0.00,27.40,31.54,33.89,9.28,36.23,1007.38,2021.00,3296.00,3121.49,3382.12,500.45,485.50,36.72,0000 0000 0000 0000 000000
2014-07-13 10:16:33,0.01,0.55,0.00,27.38,31.56,33.91,9.21,36.16,1006.92,2021.00,3295.75,3121.11,3382.00,500.14,484.91,36.76,0000 0000 0000 0000 000000
2014-07-13 10:21:35,0.06,0.55,0.00,27.36,31.59,33.93,9.19,36.86,1006.85,2020.99,3294.39,3120.74,3381.39,499.77,484.55,36.80,0000 0000 0000 0000 000000
2014-07-13 10:26:36,0.08,0.55,0.00,27.35,31.60,33.94,9.33,36.49,1006.86,2020.97,3292.69,3119.79,3380.49,500.28,485.21,36.85,0000 0000 0000 0000 000000
2014-07-13 10:31:37,0.03,0.55,0.00,27.32,31.62,33.98,9.21,36.38,1006.87,2020.77,3291.04,3118.96,3379.08,499.41,484.64,36.89,0000 0000 0000 0000 000000
2014-07-13 10:36:38,0.06,0.56,0.00,27.31,31.64,33.99,9.35,36.22,1006.85,2020.43,3289.48,3118.00,3378.33,499.83,484.63,36.93,0000 0000 0000 0000 000000
2014-07-13 10:41:39,0.07,0.56,0.00,27.28,31.65,33.99,9.25,36.56,1006.66,2020.23,3287.49,3117.07,3377.16,500.14,484.96,36.97,0000 0000 0000 0000 000000
2014-07-13 10:46:40,-0.01,0.56,0.00,27.26,31.66,34.01,9.28,36.36,1006.37,2020.16,3287.15,3117.00,3377.04,500.08,484.81,37.01,0000 0000 0000 0000 000000
2014-07-13 10:51:41,-0.00,0.56,0.00,27.23,31.67,34.01,9.37,37.24,1006.41,2020.09,3287.01,3116.99,3377.00,500.50,485.23,37.05,0000 0000 0000 0000 000000
2014-07-13 10:56:42,0.08,0.56,0.00,27.20,31.67,34.02,9.25,36.51,1006.60,2020.05,3285.86,3116.31,3376.36,500.41,485.36,37.10,0000 0000 0000 0000 000000
2014-07-13 11:01:43,0.01,0.56,0.00,27.19,31.69,34.01,9.30,36.16,1006.36,2020.02,3285.00,3115.95,3375.98,500.02,484.81,37.14,0000 0000 0000 0000 000000
2014-07-13 11:06:45,0.06,0.56,0.00,27.16,31.70,34.01,9.29,35.94,1006.15,2020.01,3284.22,3115.32,3375.31,500.10,485.00,37.18,0000 0000 0000 0000 000000
2014-07-13 11:11:45,0.01,0.56,0.00,27.15,31.70,34.01,9.35,36.52,1005.83,2020.02,3283.83,3115.03,3374.99,499.87,484.46,37.22,0000 0000 0000 0000 000000
2014-07-13 11:16:47,0.09,0.57,0.00,27.14,31.70,34.03,9.26,36.20,1005.74,2020.01,3281.58,3114.34,3374.13,499.46,484.22,37.26,0000 0000 0000 0000 000000
2014-07-13 11:21:48,0.01,0.57,0.00,27.11,31.70,34.01,9.34,36.22,1005.89,2020.00,3280.90,3114.00,3373.97,499.92,484.65,37.30,0000 0000 0000 0000 000000
2014-07-13 11:26:50,0.01,0.57,0.00,27.09,31.70,34.00,9.28,36.08,1005.90,2020.01,3280.28,3113.98,3373.88,499.89,484.82,37.35,0000 0000 0000 0000 000000
2014-07-13 11:31:51,0.03,0.57,0.00,27.06,31.70,34.00,9.37,36.06,1006.00,2020.00,3279.83,3113.72,3373.25,500.12,484.91,37.39,0000 0000 0000 0000 000000
2014-07-13 11:36:52,0.04,0.57,0.00,27.02,31.68,33.99,9.29,37.96,1006.15,2020.01,3278.74,3113.03,3372.88,500.16,485.20,37.43,0000 0000 0000 0000 000000
2014-07-13 11:41:54,0.06,0.58,0.00,27.00,31.67,33.98,9.38,38.31,1005.89,2020.02,3277.19,3112.68,3372.09,500.41,485.37,37.47,0000 0000 0000 0000 000000
2014-07-13 11:46:55,0.02,0.58,0.00,26.98,31.66,33.97,9.38,38.17,1005.87,2020.02,3276.64,3112.07,3372.00,500.08,485.11,37.51,0000 0000 0000 0000 000000
2014-07-13 11:51:56,0.03,0.58,0.00,26.97,31.65,33.96,9.38,38.10,1005.83,2020.06,3275.67,3112.00,3371.62,500.27,485.21,37.55,0000 0000 0000 0000 000000
2014-07-13 11:56:57,0.03,0.58,0.00,26.94,31.64,33.94,9.32,37.76,1005.60,2020.23,3275.09,3112.00,3371.41,499.83,484.85,37.60,0000 0000 0000 0000 000000
2014-07-13 12:01:58,0.04,0.58,0.00,26.89,31.62,33.93,9.43,37.83,1005.43,2020.64,3275.09,3112.00,3371.67,500.31,485.16,37.64,0000 0000 0000 0000 000000
2014-07-13 12:07:00,-0.01,0.58,0.00,26.86,31.62,33.91,9.29,37.77,1005.41,2020.60,3275.01,3111.99,3371.24,499.53,484.65,37.68,0000 0000 0000 0000 000000
2014-07-13 12:12:01,0.07,0.58,0.00,26.87,31.60,33.92,9.40,37.65,1005.48,2020.79,3274.27,3111.34,3371.01,500.07,485.06,37.72,0000 0000 0000 0000 000000
2014-07-13 12:17:02,0.02,0.59,0.00,26.84,31.60,33.89,9.46,37.96,1005.39,2020.88,3273.98,3111.03,3370.97,500.22,485.22,37.76,0000 0000 0000 0000 000000
2014-07-13 12:22:03,0.00,0.59,0.00,26.82,31.58,33.89,9.20,37.14,1005.30,2020.93,3273.94,3111.02,3370.93,499.26,484.19,37.80,0000 0000 0000 0000 000000
2014-07-13 12:27:04,-0.00,0.59,0.00,26.79,31.57,33.88,9.36,37.52,1005.18,2020.97,3273.98,3111.17,3370.99,500.33,485.35,37.85,0000 0000 0000 0000 000000
2014-07-13 12:32:05,0.01,0.59,0.00,26.76,31.55,33.86,9.33,37.72,1004.94,2020.98,3273.97,3111.09,3370.98,499.98,484.67,37.89,0000 0000 0000 0000 000000
2014-07-13 12:37:07,0.00,0.59,0.00,26.74,31.54,33.85,9.32,37.56,1004.92,2020.99,3273.95,3111.12,3370.97,500.15,485.00,37.93,0000 0000 0000 0000 000000
2014-07-13 12:42:07,-0.00,0.59,0.00,26.72,31.52,33.82,9.32,37.89,1004.90,2020.99,3273.97,3111.21,3370.98,500.16,485.06,37.97,0000 0000 0000 0000 000000
2014-07-13 12:47:08,0.00,0.59,0.00,26.69,31.50,33.84,9.36,38.02,1004.89,2020.99,3273.94,3111.21,3370.98,500.30,485.21,38.01,0000 0000 0000 0000 000000
2014-07-13 12:52:09,-0.01,0.59,0.00,26.67,31.49,33.84,9.47,38.27,1004.61,2020.99,3273.79,3111.39,3370.99,500.97,485.68,38.05,0000 0000 0000 0000 000000
2014-07-13 12:57:10,0.00,0.59,0.00,26.64,31.47,33.84,9.39,37.86,1004.41,2021.00,3273.60,3111.64,3370.99,500.01,484.80,38.10,0000 0000 0000 0000 000000
2014-07-13 13:02:11,0.00,0.59,0.00,26.62,31.45,33.77,9.44,37.79,1004.40,2021.02,3273.27,3111.73,3370.99,500.09,484.74,38.14,0000 0000 0000 0000 000000